Wetterdaten: aktuell Montag, 25.10.2021 09:24
Datum Zeit Temp. 2m Temp. 5cm Temp. Innen Feuchte 2m Feuchte Inne Luftdruck Regen Wind Richtung Richtung Taupunkt Windchill Windben
25.10.2021 09:24 -0,4 C 2,7 C 22,5 C 85 % 63 % 1024,8 hPa 0,0 l/m 0,0 km/h (0 Bft) W 270 -2,6 C -0,4 C 0,0 km/h (0 Bft)
25.10.2021 09:22 -0,4 C 2,7 C 22,4 C 85 % 62 % 1024,8 hPa 0,0 l/m 0,0 km/h (0 Bft) NW 315 -2,6 C -0,4 C 0,0 km/h (0 Bft)
25.10.2021 09:20 -0,4 C 2,3 C 22,4 C 85 % 62 % 1024,8 hPa 0,0 l/m 0,0 km/h (0 Bft) W 270 -2,6 C -0,4 C 0,0 km/h (0 Bft)
25.10.2021 09:18 -0,4 C 2,3 C 22,5 C 85 % 63 % 1024,8 hPa 0,0 l/m 0,0 km/h (0 Bft) W 270 -2,6 C -0,4 C 0,0 km/h (0 Bft)
25.10.2021 09:16 -0,4 C 2,3 C 22,4 C 85 % 62 % 1024,8 hPa 0,0 l/m 0,0 km/h (0 Bft) W-SW 247 -2,6 C -0,4 C 0,0 km/h (0 Bft)
25.10.2021 09:14 -0,4 C 2,8 C 22,4 C 85 % 62 % 1024,8 hPa 0,0 l/m 0,0 km/h (0 Bft) W-SW 247 -2,6 C -0,4 C 0,0 km/h (0 Bft)
25.10.2021 09:12 -0,5 C 2,8 C 22,5 C 85 % 62 % 1024,8 hPa 0,0 l/m 0,0 km/h (0 Bft) W-SW 247 -2,7 C -0,5 C 0,0 km/h (0 Bft)
25.10.2021 09:10 -0,7 C 2,7 C 22,5 C 85 % 62 % 1024,8 hPa 0,0 l/m 0,0 km/h (0 Bft) W 270 -2,9 C -0,7 C 0,0 km/h (0 Bft)
25.10.2021 09:08 -0,7 C 2,5 C 22,5 C 85 % 62 % 1024,8 hPa 0,0 l/m 0,0 km/h (0 Bft) NW 315 -2,9 C -0,7 C 2,4 km/h (1 Bft)
25.10.2021 09:06 -0,7 C 2,2 C 22,4 C 85 % 62 % 1024,8 hPa 0,0 l/m 0,0 km/h (0 Bft) NW 315 -2,9 C -0,7 C 2,4 km/h (1 Bft)
25.10.2021 09:04 -0,7 C 2,2 C 22,4 C 85 % 62 % 1024,8 hPa 0,0 l/m 0,0 km/h (0 Bft) N-NW 337 -2,9 C -0,7 C 0,0 km/h (0 Bft)
25.10.2021 09:02 -0,5 C 2,0 C 22,5 C 85 % 62 % 1024,8 hPa 0,0 l/m 0,0 km/h (0 Bft) NO 45 -2,7 C -0,5 C 0,0 km/h (0 Bft)
25.10.2021 09:00 -0,5 C 1,7 C 22,4 C 85 % 62 % 1024,8 hPa 0,0 l/m 0,0 km/h (0 Bft) NO 45 -2,7 C -0,5 C 0,0 km/h (0 Bft)
25.10.2021 08:58 -0,5 C 1,5 C 22,5 C 85 % 62 % 1024,8 hPa 0,0 l/m 0,0 km/h (0 Bft) O-SO 112 -2,7 C -0,5 C 0,0 km/h (0 Bft)
25.10.2021 08:56 -0,5 C 1,4 C 22,5 C 85 % 62 % 1024,8 hPa 0,0 l/m 0,0 km/h (0 Bft) S 180 -2,7 C -0,5 C 0,0 km/h (0 Bft)
25.10.2021 08:54 -0,5 C 1,4 C 22,5 C 84 % 62 % 1024,8 hPa 0,0 l/m 0,0 km/h (0 Bft) N-NW 337 -2,9 C -0,5 C 0,0 km/h (0 Bft)
25.10.2021 08:52 -0,7 C 1,3 C 22,5 C 84 % 62 % 1024,8 hPa 0,0 l/m 0,0 km/h (0 Bft) NW 315 -3,1 C -0,7 C 0,0 km/h (0 Bft)
25.10.2021 08:50 -0,8 C 1,1 C 22,5 C 84 % 62 % 1024,8 hPa 0,0 l/m 0,0 km/h (0 Bft) NW 315 -3,2 C -0,8 C 0,0 km/h (0 Bft)
25.10.2021 08:48 -0,8 C 1,0 C 22,5 C 84 % 62 % 1024,8 hPa 0,0 l/m 0,0 km/h (0 Bft) S 180 -3,2 C -0,8 C 0,0 km/h (0 Bft)
25.10.2021 08:46 -0,9 C 1,0 C 22,5 C 84 % 63 % 1024,8 hPa 0,0 l/m 0,0 km/h (0 Bft) SO 135 -3,3 C -0,9 C 0,0 km/h (0 Bft)
25.10.2021 08:42 -0,9 C 1,0 C 22,5 C 84 % 62 % 1024,8 hPa 0,0 l/m 0,2 km/h (0 Bft) NO 45 -3,3 C -0,9 C 2,7 km/h (1 Bft)
25.10.2021 08:40 -0,9 C 0,9 C 22,5 C 84 % 62 % 1024,8 hPa 0,0 l/m 0,2 km/h (0 Bft) O-NO 67 -3,3 C -0,9 C 2,7 km/h (1 Bft)
25.10.2021 08:38 -0,9 C 0,9 C 22,5 C 84 % 62 % 1024,8 hPa 0,0 l/m 0,2 km/h (0 Bft) O-NO 67 -3,3 C -0,9 C 0,0 km/h (0 Bft)
25.10.2021 08:36 -0,9 C 0,9 C 22,5 C 84 % 63 % 1024,8 hPa 0,0 l/m 0,7 km/h (0 Bft) O-NO 67 -3,3 C -0,9 C 0,0 km/h (0 Bft)
25.10.2021 08:34 -0,9 C 0,9 C 22,5 C 84 % 63 % 1024,8 hPa 0,0 l/m 0,7 km/h (0 Bft) O-NO 67 -3,3 C -0,9 C 0,0 km/h (0 Bft)
25.10.2021 08:32 -0,9 C 0,9 C 22,5 C 84 % 63 % 1024,8 hPa 0,0 l/m 0,7 km/h (0 Bft) O-NO 67 -3,3 C -0,9 C 0,0 km/h (0 Bft)
25.10.2021 08:30 -0,9 C 0,8 C 22,5 C 84 % 63 % 1024,8 hPa 0,0 l/m 0,7 km/h (0 Bft) O-NO 67 -3,3 C -0,9 C 0,0 km/h (0 Bft)
25.10.2021 08:28 -0,9 C 0,8 C 22,5 C 84 % 63 % 1024,8 hPa 0,0 l/m 1,0 km/h (0 Bft) O 90 -3,3 C -0,9 C 2,7 km/h (1 Bft)
25.10.2021 08:26 -1,1 C 0,8 C 22,5 C 84 % 63 % 1024,8 hPa 0,0 l/m 1,0 km/h (0 Bft) O-NO 67 -3,4 C -1,1 C 2,7 km/h (1 Bft)
25.10.2021 08:24 -1,1 C 0,8 C 22,5 C 84 % 63 % 1024,6 hPa 0,0 l/m 0,7 km/h (0 Bft) NW 315 -3,4 C -1,1 C 2,4 km/h (1 Bft)
25.10.2021 08:22 -1,1 C 0,8 C 22,5 C 84 % 63 % 1024,6 hPa 0,0 l/m 0,7 km/h (0 Bft) W-NW 292 -3,4 C -1,1 C 0,0 km/h (0 Bft)
25.10.2021 08:20 -1,1 C 0,8 C 22,5 C 84 % 63 % 1024,6 hPa 0,0 l/m 0,7 km/h (0 Bft) W-SW 247 -3,4 C -1,1 C 3,9 km/h (1 Bft)
25.10.2021 08:18 -1,1 C 0,8 C 22,5 C 84 % 63 % 1024,6 hPa 0,0 l/m 1,0 km/h (0 Bft) W-SW 247 -3,4 C -1,1 C 4,3 km/h (1 Bft)
25.10.2021 08:16 -1,1 C 0,7 C 22,5 C 84 % 63 % 1024,6 hPa 0,0 l/m 1,2 km/h (1 Bft) SW 225 -3,4 C -1,1 C 4,3 km/h (1 Bft)
25.10.2021 08:14 -1,1 C 0,7 C 22,5 C 84 % 63 % 1024,6 hPa 0,0 l/m 1,7 km/h (1 Bft) S-SO 157 -3,4 C -1,1 C 0,0 km/h (0 Bft)
25.10.2021 08:12 -1,1 C 0,5 C 22,5 C 84 % 63 % 1024,6 hPa 0,0 l/m 1,7 km/h (1 Bft) S 180 -3,4 C -1,1 C 0,0 km/h (0 Bft)
25.10.2021 08:10 -1,2 C 0,4 C 22,4 C 84 % 63 % 1024,6 hPa 0,0 l/m 1,9 km/h (1 Bft) SO 135 -3,5 C -1,2 C 3,6 km/h (1 Bft)
25.10.2021 08:08 -1,2 C 0,4 C 22,4 C 84 % 63 % 1024,6 hPa 0,0 l/m 2,2 km/h (1 Bft) S 180 -3,5 C -1,2 C 3,9 km/h (1 Bft)
25.10.2021 08:06 -1,2 C 0,3 C 22,4 C 84 % 62 % 1024,6 hPa 0,0 l/m 1,7 km/h (1 Bft) S-SO 157 -3,5 C -1,2 C 3,9 km/h (1 Bft)
25.10.2021 08:04 -1,2 C 0,3 C 22,4 C 84 % 62 % 1024,4 hPa 0,0 l/m 1,2 km/h (1 Bft) S-SO 157 -3,5 C -1,2 C 3,4 km/h (1 Bft)
25.10.2021 08:02 -1,2 C 0,3 C 22,4 C 84 % 62 % 1024,4 hPa 0,0 l/m 0,7 km/h (0 Bft) S 180 -3,5 C -1,2 C 2,9 km/h (1 Bft)
25.10.2021 08:00 -1,2 C 0,4 C 22,4 C 84 % 62 % 1024,4 hPa 0,0 l/m 0,7 km/h (0 Bft) S-SO 157 -3,5 C -1,2 C 2,9 km/h (1 Bft)
25.10.2021 07:58 -1,2 C 0,4 C 22,4 C 84 % 62 % 1024,4 hPa 0,0 l/m 0,5 km/h (0 Bft) S-SO 157 -3,5 C -1,2 C 2,9 km/h (1 Bft)
25.10.2021 07:56 -1,2 C 0,4 C 22,3 C 84 % 62 % 1024,4 hPa 0,0 l/m 0,2 km/h (0 Bft) O-SO 112 -3,5 C -1,2 C 2,9 km/h (1 Bft)
25.10.2021 07:54 -1,3 C 0,3 C 22,4 C 84 % 62 % 1024,4 hPa 0,0 l/m 0,0 km/h (0 Bft) O-SO 112 -3,6 C -1,3 C 0,0 km/h (0 Bft)
25.10.2021 07:52 -1,3 C 0,4 C 22,4 C 84 % 62 % 1024,4 hPa 0,0 l/m 0,0 km/h (0 Bft) SO 135 -3,6 C -1,3 C 2,4 km/h (1 Bft)
25.10.2021 07:50 -1,3 C 0,2 C 22,4 C 84 % 62 % 1024,4 hPa 0,0 l/m 0,0 km/h (0 Bft) S 180 -3,6 C -1,3 C 2,4 km/h (1 Bft)
25.10.2021 07:48 -1,3 C 0,1 C 22,4 C 84 % 62 % 1024,4 hPa 0,0 l/m 0,0 km/h (0 Bft) S-SW 202 -3,6 C -1,3 C 0,0 km/h (0 Bft)
25.10.2021 07:46 -1,6 C -0,2 C 22,4 C 84 % 62 % 1024,4 hPa 0,0 l/m 0,2 km/h (0 Bft) S-SW 202 -3,9 C -1,6 C 0,0 km/h (0 Bft)
25.10.2021 07:42 -1,6 C -0,2 C 22,4 C 84 % 62 % 1024,2 hPa 0,0 l/m 1,0 km/h (0 Bft) SO 135 -3,9 C -1,6 C 0,0 km/h (0 Bft)
25.10.2021 07:40 -1,6 C -0,5 C 22,4 C 84 % 62 % 1024,2 hPa 0,0 l/m 1,4 km/h (1 Bft) S-SO 157 -3,9 C -1,6 C 0,0 km/h (0 Bft)
25.10.2021 07:38 -1,6 C -0,5 C 22,4 C 84 % 62 % 1024,2 hPa 0,0 l/m 1,4 km/h (1 Bft) S 180 -3,9 C -1,6 C 0,0 km/h (0 Bft)
25.10.2021 07:36 -1,6 C -0,5 C 22,4 C 84 % 62 % 1024,2 hPa 0,0 l/m 1,4 km/h (1 Bft) S-SO 157 -3,9 C -1,6 C 2,9 km/h (1 Bft)
25.10.2021 07:34 -1,6 C -0,6 C 22,4 C 84 % 62 % 1024,2 hPa 0,0 l/m 1,2 km/h (1 Bft) S-SO 157 -3,9 C -1,6 C 3,4 km/h (1 Bft)
25.10.2021 07:32 -1,6 C -0,6 C 22,4 C 84 % 62 % 1024,2 hPa 0,0 l/m 1,0 km/h (0 Bft) S-SO 157 -3,9 C -1,6 C 3,4 km/h (1 Bft)
25.10.2021 07:30 -1,6 C -0,6 C 22,4 C 84 % 62 % 1024,2 hPa 0,0 l/m 0,2 km/h (0 Bft) S 180 -3,9 C -1,6 C 2,4 km/h (1 Bft)
25.10.2021 07:28 -1,7 C -0,7 C 22,4 C 84 % 62 % 1024,2 hPa 0,0 l/m 0,0 km/h (0 Bft) S-SO 157 -4,0 C -1,7 C 2,4 km/h (1 Bft)
25.10.2021 07:26 -1,7 C -0,9 C 22,4 C 83 % 62 % 1024,2 hPa 0,0 l/m 0,0 km/h (0 Bft) S 180 -4,2 C -1,7 C 2,4 km/h (1 Bft)
25.10.2021 07:24 -1,7 C -0,9 C 22,4 C 83 % 62 % 1024,3 hPa 0,0 l/m 0,0 km/h (0 Bft) S 180 -4,2 C -1,7 C 0,0 km/h (0 Bft)
25.10.2021 07:22 -1,7 C -1,0 C 22,4 C 83 % 62 % 1024,3 hPa 0,0 l/m 0,0 km/h (0 Bft) S-SO 157 -4,2 C -1,7 C 0,0 km/h (0 Bft)
25.10.2021 07:20 -1,7 C -1,0 C 22,4 C 83 % 62 % 1024,3 hPa 0,0 l/m 0,2 km/h (0 Bft) S-SO 157 -4,2 C -1,7 C 0,0 km/h (0 Bft)
25.10.2021 07:18 -1,7 C -1,2 C 22,4 C 83 % 62 % 1024,3 hPa 0,0 l/m 0,2 km/h (0 Bft) S-SO 157 -4,2 C -1,7 C 0,0 km/h (0 Bft)
25.10.2021 07:16 -1,7 C -1,2 C 22,4 C 83 % 62 % 1024,3 hPa 0,0 l/m 0,2 km/h (0 Bft) SO 135 -4,2 C -1,7 C 0,0 km/h (0 Bft)
25.10.2021 07:14 -1,7 C -1,3 C 22,4 C 83 % 62 % 1024,3 hPa 0,0 l/m 0,2 km/h (0 Bft) O-SO 112 -4,2 C -1,7 C 0,0 km/h (0 Bft)
25.10.2021 07:12 -1,7 C -1,3 C 22,5 C 83 % 62 % 1024,3 hPa 0,0 l/m 0,2 km/h (0 Bft) SO 135 -4,2 C -1,7 C 0,0 km/h (0 Bft)
25.10.2021 07:10 -1,7 C -1,3 C 22,4 C 83 % 62 % 1024,3 hPa 0,0 l/m 0,2 km/h (0 Bft) S-SO 157 -4,2 C -1,7 C 0,0 km/h (0 Bft)
25.10.2021 07:08 -1,7 C -1,4 C 22,4 C 83 % 62 % 1024,3 hPa 0,0 l/m 0,0 km/h (0 Bft) S 180 -4,2 C -1,7 C 0,0 km/h (0 Bft)
25.10.2021 07:06 -1,8 C -1,6 C 22,4 C 83 % 62 % 1024,3 hPa 0,0 l/m 0,0 km/h (0 Bft) S 180 -4,3 C -1,8 C 0,0 km/h (0 Bft)
25.10.2021 07:04 -1,8 C -1,6 C 22,4 C 83 % 62 % 1024,3 hPa 0,0 l/m 0,0 km/h (0 Bft) S 180 -4,3 C -1,8 C 0,0 km/h (0 Bft)
25.10.2021 07:02 -1,8 C -1,4 C 22,4 C 83 % 62 % 1024,3 hPa 0,0 l/m 0,0 km/h (0 Bft) S 180 -4,3 C -1,8 C 0,0 km/h (0 Bft)
25.10.2021 07:00 -1,8 C -1,4 C 22,4 C 83 % 62 % 1024,3 hPa 0,0 l/m 0,0 km/h (0 Bft) S 180 -4,3 C -1,8 C 0,0 km/h (0 Bft)
25.10.2021 06:58 -1,8 C -1,4 C 22,5 C 83 % 62 % 1024,3 hPa 0,0 l/m 0,0 km/h (0 Bft) SO 135 -4,3 C -1,8 C 0,0 km/h (0 Bft)
25.10.2021 06:56 -1,8 C -1,6 C 22,5 C 83 % 62 % 1024,3 hPa 0,0 l/m 0,0 km/h (0 Bft) O-SO 112 -4,3 C -1,8 C 0,0 km/h (0 Bft)
25.10.2021 06:54 -1,8 C -1,4 C 22,5 C 83 % 62 % 1024,3 hPa 0,0 l/m 0,0 km/h (0 Bft) O-SO 112 -4,3 C -1,8 C 0,0 km/h (0 Bft)
25.10.2021 06:52 -1,8 C -1,3 C 22,5 C 83 % 62 % 1024,3 hPa 0,0 l/m 0,0 km/h (0 Bft) O-SO 112 -4,3 C -1,8 C 0,0 km/h (0 Bft)
25.10.2021 06:50 -1,8 C -1,4 C 22,5 C 83 % 62 % 1024,3 hPa 0,0 l/m 0,0 km/h (0 Bft) O-SO 112 -4,3 C -1,8 C 0,0 km/h (0 Bft)
25.10.2021 06:48 -1,8 C -1,3 C 22,5 C 83 % 62 % 1024,3 hPa 0,0 l/m 0,0 km/h (0 Bft) SO 135 -4,3 C -1,8 C 0,0 km/h (0 Bft)
25.10.2021 06:46 -1,7 C -1,3 C 22,5 C 83 % 63 % 1024,3 hPa 0,0 l/m 0,0 km/h (0 Bft) SO 135 -4,2 C -1,7 C 0,0 km/h (0 Bft)
25.10.2021 06:42 -1,6 C -1,4 C 22,5 C 83 % 62 % 1024,6 hPa 0,0 l/m 0,0 km/h (0 Bft) SO 135 -4,1 C -1,6 C 0,0 km/h (0 Bft)
25.10.2021 06:40 -1,6 C -1,3 C 22,5 C 83 % 63 % 1024,6 hPa 0,0 l/m 0,0 km/h (0 Bft) SO 135 -4,1 C -1,6 C 0,0 km/h (0 Bft)
25.10.2021 06:38 -1,6 C -1,3 C 22,5 C 83 % 63 % 1024,6 hPa 0,0 l/m 0,2 km/h (0 Bft) SO 135 -4,1 C -1,6 C 0,0 km/h (0 Bft)
25.10.2021 06:36 -1,6 C -1,2 C 22,5 C 83 % 63 % 1024,6 hPa 0,0 l/m 0,2 km/h (0 Bft) SO 135 -4,1 C -1,6 C 0,0 km/h (0 Bft)
25.10.2021 06:34 -1,5 C -1,3 C 22,5 C 83 % 63 % 1024,6 hPa 0,0 l/m 0,5 km/h (0 Bft) SO 135 -4,0 C -1,5 C 0,0 km/h (0 Bft)
25.10.2021 06:32 -1,5 C -1,3 C 22,5 C 83 % 63 % 1024,6 hPa 0,0 l/m 0,5 km/h (0 Bft) S-SO 157 -4,0 C -1,5 C 0,0 km/h (0 Bft)
25.10.2021 06:30 -1,5 C -1,3 C 22,5 C 83 % 63 % 1024,6 hPa 0,0 l/m 0,5 km/h (0 Bft) S-SO 157 -4,0 C -1,5 C 0,0 km/h (0 Bft)
25.10.2021 06:28 -1,5 C -1,0 C 22,5 C 83 % 63 % 1024,6 hPa 0,0 l/m 0,5 km/h (0 Bft) S 180 -4,0 C -1,5 C 2,9 km/h (1 Bft)
25.10.2021 06:26 -1,5 C -1,0 C 22,5 C 83 % 63 % 1024,6 hPa 0,0 l/m 0,5 km/h (0 Bft) S 180 -4,0 C -1,5 C 2,9 km/h (1 Bft)
25.10.2021 06:24 -1,5 C -1,0 C 22,5 C 83 % 63 % 1024,6 hPa 0,0 l/m 0,2 km/h (0 Bft) S-SO 157 -4,0 C -1,5 C 2,9 km/h (1 Bft)
25.10.2021 06:22 -1,5 C -1,0 C 22,5 C 83 % 63 % 1024,6 hPa 0,0 l/m 0,0 km/h (0 Bft) S-SO 157 -4,0 C -1,5 C 0,0 km/h (0 Bft)
25.10.2021 06:20 -1,5 C -1,0 C 22,5 C 83 % 63 % 1024,6 hPa 0,0 l/m 0,0 km/h (0 Bft) S-SO 157 -4,0 C -1,5 C 0,0 km/h (0 Bft)
25.10.2021 06:18 -1,5 C -1,0 C 22,5 C 83 % 63 % 1024,6 hPa 0,0 l/m 0,0 km/h (0 Bft) SO 135 -4,0 C -1,5 C 0,0 km/h (0 Bft)
25.10.2021 06:16 -1,5 C -1,0 C 22,5 C 83 % 63 % 1024,6 hPa 0,0 l/m 0,0 km/h (0 Bft) SO 135 -4,0 C -1,5 C 0,0 km/h (0 Bft)
25.10.2021 06:14 -1,5 C -0,9 C 22,5 C 83 % 63 % 1024,6 hPa 0,0 l/m 0,0 km/h (0 Bft) SO 135 -4,0 C -1,5 C 0,0 km/h (0 Bft)
25.10.2021 06:12 -1,5 C -0,9 C 22,4 C 83 % 63 % 1024,6 hPa 0,0 l/m 0,0 km/h (0 Bft) S-SO 157 -4,0 C -1,5 C 0,0 km/h (0 Bft)
25.10.2021 06:10 -1,3 C -1,0 C 22,5 C 83 % 63 % 1024,6 hPa 0,0 l/m 0,0 km/h (0 Bft) S-SO 157 -3,8 C -1,3 C 0,0 km/h (0 Bft)
25.10.2021 06:08 -1,3 C -1,0 C 22,5 C 83 % 63 % 1024,6 hPa 0,0 l/m 0,0 km/h (0 Bft) S-SO 157 -3,8 C -1,3 C 0,0 km/h (0 Bft)
25.10.2021 06:06 -1,3 C -1,0 C 22,5 C 83 % 63 % 1024,6 hPa 0,0 l/m 0,0 km/h (0 Bft) S-SO 157 -3,8 C -1,3 C 0,0 km/h (0 Bft)
25.10.2021 06:04 -1,3 C -1,0 C 22,5 C 83 % 63 % 1024,4 hPa 0,0 l/m 0,0 km/h (0 Bft) S-SO 157 -3,8 C -1,3 C 0,0 km/h (0 Bft)
25.10.2021 06:02 -1,3 C -1,0 C 22,5 C 83 % 63 % 1024,4 hPa 0,0 l/m 0,0 km/h (0 Bft) S-SO 157 -3,8 C -1,3 C 0,0 km/h (0 Bft)
25.10.2021 06:00 -1,3 C -1,0 C 22,5 C 83 % 63 % 1024,4 hPa 0,0 l/m 0,0 km/h (0 Bft) S-SO 157 -3,8 C -1,3 C 0,0 km/h (0 Bft)
25.10.2021 05:58 -1,3 C -1,0 C 22,5 C 83 % 63 % 1024,4 hPa 0,0 l/m 0,0 km/h (0 Bft) S 180 -3,8 C -1,3 C 0,0 km/h (0 Bft)
25.10.2021 05:56 -1,3 C -0,9 C 22,5 C 83 % 63 % 1024,4 hPa 0,0 l/m 0,0 km/h (0 Bft) S-SO 157 -3,8 C -1,3 C 0,0 km/h (0 Bft)
25.10.2021 05:54 -1,3 C -0,9 C 22,5 C 83 % 63 % 1024,4 hPa 0,0 l/m 0,0 km/h (0 Bft) S-SO 157 -3,8 C -1,3 C 0,0 km/h (0 Bft)
25.10.2021 05:52 -1,3 C -0,9 C 22,5 C 83 % 63 % 1024,4 hPa 0,0 l/m 0,0 km/h (0 Bft) S-SO 157 -3,8 C -1,3 C 0,0 km/h (0 Bft)
25.10.2021 05:50 -1,3 C -1,0 C 22,5 C 83 % 63 % 1024,4 hPa 0,0 l/m 0,0 km/h (0 Bft) SO 135 -3,8 C -1,3 C 0,0 km/h (0 Bft)
25.10.2021 05:48 -1,3 C -1,0 C 22,5 C 83 % 63 % 1024,4 hPa 0,0 l/m 0,0 km/h (0 Bft) SO 135 -3,8 C -1,3 C 0,0 km/h (0 Bft)
25.10.2021 05:46 -1,3 C -0,9 C 22,5 C 83 % 63 % 1024,4 hPa 0,0 l/m 0,0 km/h (0 Bft) O-NO 67 -3,8 C -1,3 C 0,0 km/h (0 Bft)
25.10.2021 05:42 -1,3 C -0,7 C 22,5 C 83 % 63 % 1024,6 hPa 0,0 l/m 0,0 km/h (0 Bft) O-NO 67 -3,8 C -1,3 C 0,0 km/h (0 Bft)
25.10.2021 05:40 -1,3 C -0,5 C 22,5 C 83 % 63 % 1024,6 hPa 0,0 l/m 0,0 km/h (0 Bft) O-NO 67 -3,8 C -1,3 C 0,0 km/h (0 Bft)
25.10.2021 05:38 -1,3 C -0,3 C 22,5 C 83 % 63 % 1024,6 hPa 0,0 l/m 0,0 km/h (0 Bft) O-NO 67 -3,8 C -1,3 C 0,0 km/h (0 Bft)
25.10.2021 05:36 -1,3 C -0,3 C 22,5 C 83 % 63 % 1024,6 hPa 0,0 l/m 0,0 km/h (0 Bft) O-NO 67 -3,8 C -1,3 C 0,0 km/h (0 Bft)
25.10.2021 05:34 -1,3 C -0,4 C 22,5 C 83 % 63 % 1024,6 hPa 0,0 l/m 0,0 km/h (0 Bft) O-NO 67 -3,8 C -1,3 C 0,0 km/h (0 Bft)
25.10.2021 05:32 -1,2 C -0,5 C 22,5 C 83 % 63 % 1024,6 hPa 0,0 l/m 0,0 km/h (0 Bft) SO 135 -3,7 C -1,2 C 0,0 km/h (0 Bft)
25.10.2021 05:30 -1,2 C -0,2 C 22,5 C 83 % 63 % 1024,6 hPa 0,0 l/m 0,0 km/h (0 Bft) O-SO 112 -3,7 C -1,2 C 0,0 km/h (0 Bft)
25.10.2021 05:28 -1,1 C 0,0 C 22,5 C 83 % 63 % 1024,6 hPa 0,0 l/m 0,0 km/h (0 Bft) O-NO 67 -3,6 C -1,1 C 0,0 km/h (0 Bft)
25.10.2021 05:26 -1,1 C 0,2 C 22,5 C 83 % 63 % 1024,6 hPa 0,0 l/m 0,0 km/h (0 Bft) O-SO 112 -3,6 C -1,1 C 0,0 km/h (0 Bft)
25.10.2021 05:24 -1,1 C 0,2 C 22,5 C 83 % 63 % 1024,7 hPa 0,0 l/m 0,0 km/h (0 Bft) O-NO 67 -3,6 C -1,1 C 0,0 km/h (0 Bft)
25.10.2021 05:22 -1,1 C 0,2 C 22,5 C 83 % 63 % 1024,7 hPa 0,0 l/m 0,0 km/h (0 Bft) O-NO 67 -3,6 C -1,1 C 0,0 km/h (0 Bft)
25.10.2021 05:20 -1,1 C 0,3 C 22,5 C 83 % 63 % 1024,7 hPa 0,0 l/m 0,0 km/h (0 Bft) O-NO 67 -3,6 C -1,1 C 0,0 km/h (0 Bft)
25.10.2021 05:18 -0,9 C 0,2 C 22,5 C 83 % 63 % 1024,7 hPa 0,0 l/m 0,0 km/h (0 Bft) O-NO 67 -3,4 C -0,9 C 0,0 km/h (0 Bft)
25.10.2021 05:16 -0,9 C 0,3 C 22,5 C 83 % 63 % 1024,7 hPa 0,0 l/m 0,0 km/h (0 Bft) O-NO 67 -3,4 C -0,9 C 0,0 km/h (0 Bft)
25.10.2021 05:14 -0,9 C 0,4 C 22,5 C 83 % 63 % 1024,7 hPa 0,0 l/m 0,0 km/h (0 Bft) O-NO 67 -3,4 C -0,9 C 0,0 km/h (0 Bft)
25.10.2021 05:12 -0,8 C 0,4 C 22,5 C 83 % 63 % 1024,7 hPa 0,0 l/m 0,0 km/h (0 Bft) O-NO 67 -3,3 C -0,8 C 0,0 km/h (0 Bft)
25.10.2021 05:10 -0,8 C 0,5 C 22,5 C 83 % 63 % 1024,7 hPa 0,0 l/m 0,0 km/h (0 Bft) S 180 -3,3 C -0,8 C 0,0 km/h (0 Bft)
25.10.2021 05:08 -0,8 C 0,6 C 22,5 C 83 % 63 % 1024,7 hPa 0,0 l/m 0,0 km/h (0 Bft) S 180 -3,3 C -0,8 C 0,0 km/h (0 Bft)
25.10.2021 05:06 -0,5 C 0,6 C 22,5 C 83 % 63 % 1024,7 hPa 0,0 l/m 0,0 km/h (0 Bft) O-NO 67 -3,0 C -0,5 C 0,0 km/h (0 Bft)
25.10.2021 05:04 -0,5 C 0,6 C 22,5 C 83 % 63 % 1024,7 hPa 0,0 l/m 0,0 km/h (0 Bft) O-NO 67 -3,0 C -0,5 C 0,0 km/h (0 Bft)
25.10.2021 05:02 -0,4 C 0,6 C 22,5 C 83 % 63 % 1024,7 hPa 0,0 l/m 0,0 km/h (0 Bft) O-NO 67 -2,9 C -0,4 C 0,0 km/h (0 Bft)
25.10.2021 05:00 -0,4 C 0,6 C 22,5 C 83 % 63 % 1024,7 hPa 0,0 l/m 0,0 km/h (0 Bft) O-SO 112 -2,9 C -0,4 C 0,0 km/h (0 Bft)
25.10.2021 04:58 -0,4 C 0,8 C 22,5 C 83 % 63 % 1024,7 hPa 0,0 l/m 0,0 km/h (0 Bft) O-SO 112 -2,9 C -0,4 C 0,0 km/h (0 Bft)
25.10.2021 04:56 -0,4 C 0,8 C 22,5 C 83 % 63 % 1024,7 hPa 0,0 l/m 0,0 km/h (0 Bft) O-SO 112 -2,9 C -0,4 C 0,0 km/h (0 Bft)
25.10.2021 04:54 -0,4 C 0,8 C 22,5 C 83 % 63 % 1024,7 hPa 0,0 l/m 0,0 km/h (0 Bft) S-SO 157 -2,9 C -0,4 C 0,0 km/h (0 Bft)
25.10.2021 04:52 -0,4 C 0,6 C 22,5 C 83 % 63 % 1024,7 hPa 0,0 l/m 0,0 km/h (0 Bft) SO 135 -2,9 C -0,4 C 0,0 km/h (0 Bft)
25.10.2021 04:50 -0,4 C 0,6 C 22,5 C 83 % 63 % 1024,7 hPa 0,0 l/m 0,0 km/h (0 Bft) S-SO 157 -2,9 C -0,4 C 0,0 km/h (0 Bft)
25.10.2021 04:48 -0,5 C 0,8 C 22,5 C 83 % 63 % 1024,7 hPa 0,0 l/m 0,0 km/h (0 Bft) S-SO 157 -3,0 C -0,5 C 0,0 km/h (0 Bft)
25.10.2021 04:46 -0,5 C 0,6 C 22,5 C 83 % 63 % 1024,7 hPa 0,0 l/m 0,0 km/h (0 Bft) NO 45 -3,0 C -0,5 C 0,0 km/h (0 Bft)
25.10.2021 04:44 -0,5 C 0,6 C 22,5 C 83 % 63 % 1024,9 hPa 0,0 l/m 0,0 km/h (0 Bft) NO 45 -3,0 C -0,5 C 0,0 km/h (0 Bft)
25.10.2021 04:42 -0,5 C 0,6 C 22,5 C 83 % 63 % 1024,9 hPa 0,0 l/m 0,2 km/h (0 Bft) NO 45 -3,0 C -0,5 C 0,0 km/h (0 Bft)
25.10.2021 04:40 -0,5 C 0,6 C 22,5 C 83 % 63 % 1024,9 hPa 0,0 l/m 0,2 km/h (0 Bft) S-SO 157 -3,0 C -0,5 C 0,0 km/h (0 Bft)
25.10.2021 04:38 -0,5 C 0,5 C 22,4 C 83 % 63 % 1024,9 hPa 0,0 l/m 0,5 km/h (0 Bft) S-SO 157 -3,0 C -0,5 C 0,0 km/h (0 Bft)
25.10.2021 04:36 -0,7 C 0,4 C 22,5 C 83 % 63 % 1024,9 hPa 0,0 l/m 1,0 km/h (0 Bft) S-SO 157 -3,2 C -0,7 C 0,0 km/h (0 Bft)
25.10.2021 04:34 -0,7 C 0,4 C 22,4 C 83 % 63 % 1024,9 hPa 0,0 l/m 1,4 km/h (1 Bft) S 180 -3,2 C -0,7 C 0,0 km/h (0 Bft)
25.10.2021 04:32 -0,7 C 0,3 C 22,4 C 83 % 63 % 1024,9 hPa 0,0 l/m 1,9 km/h (1 Bft) S-SO 157 -3,2 C -0,7 C 2,9 km/h (1 Bft)
25.10.2021 04:30 -0,7 C 0,3 C 22,4 C 83 % 63 % 1024,9 hPa 0,0 l/m 1,9 km/h (1 Bft) S 180 -3,2 C -0,7 C 2,9 km/h (1 Bft)
25.10.2021 04:28 -0,7 C -0,1 C 22,4 C 83 % 63 % 1024,9 hPa 0,0 l/m 2,2 km/h (1 Bft) SO 135 -3,2 C -0,7 C 3,9 km/h (1 Bft)
25.10.2021 04:26 -0,7 C -0,8 C 22,4 C 83 % 63 % 1024,9 hPa 0,0 l/m 1,9 km/h (1 Bft) S-SO 157 -3,2 C -0,7 C 3,9 km/h (1 Bft)
25.10.2021 04:24 -0,7 C -0,8 C 22,4 C 83 % 63 % 1025,0 hPa 0,0 l/m 1,4 km/h (1 Bft) S-SO 157 -3,2 C -0,7 C 3,1 km/h (1 Bft)
25.10.2021 04:22 -0,7 C -0,9 C 22,4 C 83 % 63 % 1025,0 hPa 0,0 l/m 0,7 km/h (0 Bft) S-SO 157 -3,2 C -0,7 C 2,7 km/h (1 Bft)
25.10.2021 04:20 -0,7 C -1,3 C 22,4 C 83 % 63 % 1025,0 hPa 0,0 l/m 0,5 km/h (0 Bft) S-SO 157 -3,2 C -0,7 C 3,6 km/h (1 Bft)
25.10.2021 04:18 -0,7 C -1,3 C 22,4 C 83 % 63 % 1025,0 hPa 0,0 l/m 0,2 km/h (0 Bft) SO 135 -3,2 C -0,7 C 3,6 km/h (1 Bft)
25.10.2021 04:16 -0,6 C -1,3 C 22,4 C 83 % 63 % 1025,0 hPa 0,0 l/m 1,0 km/h (0 Bft) O-SO 112 -3,1 C -0,6 C 0,0 km/h (0 Bft)
25.10.2021 04:14 -0,6 C -1,3 C 22,4 C 83 % 63 % 1025,0 hPa 0,0 l/m 1,4 km/h (1 Bft) O-NO 67 -3,1 C -0,6 C 0,0 km/h (0 Bft)
25.10.2021 04:12 -0,6 C -1,2 C 22,4 C 83 % 63 % 1025,0 hPa 0,0 l/m 2,7 km/h (1 Bft) O-NO 67 -3,1 C -0,6 C 0,0 km/h (0 Bft)
25.10.2021 04:10 -0,4 C -0,8 C 22,4 C 83 % 63 % 1025,0 hPa 0,0 l/m 3,6 km/h (1 Bft) O 90 -2,9 C -0,4 C 0,0 km/h (0 Bft)
25.10.2021 04:08 -0,3 C -0,6 C 22,4 C 83 % 63 % 1025,0 hPa 0,0 l/m 4,8 km/h (1 Bft) O-NO 67 -2,8 C -0,3 C 4,3 km/h (1 Bft)
25.10.2021 04:06 -0,2 C -0,6 C 22,4 C 83 % 63 % 1025,0 hPa 0,0 l/m 5,8 km/h (2 Bft) NO 45 -2,7 C -0,2 C 4,6 km/h (1 Bft)
25.10.2021 04:04 -0,2 C -0,6 C 22,4 C 83 % 63 % 1025,0 hPa 0,0 l/m 5,8 km/h (2 Bft) NO 45 -2,7 C -0,2 C 8,7 km/h (2 Bft)
25.10.2021 04:02 -0,3 C -0,8 C 22,4 C 83 % 63 % 1025,0 hPa 0,0 l/m 5,8 km/h (2 Bft) N 360 -2,8 C -0,3 C 8,7 km/h (2 Bft)
25.10.2021 04:00 -0,3 C -0,8 C 22,4 C 83 % 63 % 1025,0 hPa 0,0 l/m 5,6 km/h (1 Bft) N-NO 22 -2,8 C -0,3 C 8,7 km/h (2 Bft)
25.10.2021 03:58 -0,3 C -0,8 C 22,4 C 83 % 63 % 1025,0 hPa 0,0 l/m 5,3 km/h (1 Bft) N-NO 22 -2,8 C -0,3 C 8,4 km/h (2 Bft)
25.10.2021 03:56 -0,3 C -0,6 C 22,4 C 82 % 63 % 1025,0 hPa 0,0 l/m 5,1 km/h (1 Bft) N-NO 22 -3,0 C -0,3 C 8,4 km/h (2 Bft)
25.10.2021 03:54 -0,3 C -0,8 C 22,4 C 82 % 63 % 1025,0 hPa 0,0 l/m 5,1 km/h (1 Bft) N-NW 337 -3,0 C -0,3 C 5,6 km/h (1 Bft)
25.10.2021 03:52 -0,4 C -0,9 C 22,5 C 82 % 63 % 1025,0 hPa 0,0 l/m 5,3 km/h (1 Bft) N-NO 22 -3,1 C -0,4 C 6,3 km/h (2 Bft)
25.10.2021 03:50 -0,3 C -0,8 C 22,4 C 82 % 62 % 1025,0 hPa 0,0 l/m 5,3 km/h (1 Bft) N-NO 22 -3,0 C -0,3 C 6,3 km/h (2 Bft)
25.10.2021 03:48 -0,3 C -0,6 C 22,5 C 82 % 63 % 1025,0 hPa 0,0 l/m 5,3 km/h (1 Bft) N 360 -3,0 C -0,3 C 5,8 km/h (2 Bft)
25.10.2021 03:46 -0,3 C -0,5 C 22,5 C 82 % 62 % 1025,0 hPa 0,0 l/m 5,6 km/h (1 Bft) N-NO 22 -3,0 C -0,3 C 5,3 km/h (1 Bft)
25.10.2021 03:42 -0,3 C -0,8 C 22,5 C 82 % 62 % 1025,4 hPa 0,0 l/m 5,6 km/h (1 Bft) NO 45 -3,0 C -0,3 C 5,8 km/h (2 Bft)
25.10.2021 03:40 -0,3 C -0,8 C 22,5 C 82 % 62 % 1025,4 hPa 0,0 l/m 5,8 km/h (2 Bft) NO 45 -3,0 C -0,3 C 5,8 km/h (2 Bft)
25.10.2021 03:38 -0,4 C -0,8 C 22,5 C 82 % 62 % 1025,4 hPa 0,0 l/m 6,0 km/h (2 Bft) NO 45 -3,1 C -0,4 C 5,8 km/h (2 Bft)
25.10.2021 03:36 -0,6 C -0,8 C 22,5 C 82 % 62 % 1025,4 hPa 0,0 l/m 6,3 km/h (2 Bft) NO 45 -3,3 C -0,6 C 5,8 km/h (2 Bft)
25.10.2021 03:34 -0,6 C -0,6 C 22,5 C 82 % 62 % 1025,4 hPa 0,0 l/m 6,3 km/h (2 Bft) N-NO 22 -3,3 C -0,6 C 6,5 km/h (2 Bft)
25.10.2021 03:32 -0,6 C -0,8 C 22,5 C 82 % 62 % 1025,4 hPa 0,0 l/m 6,3 km/h (2 Bft) N-NO 22 -3,3 C -0,6 C 7,0 km/h (2 Bft)
25.10.2021 03:30 -0,6 C -0,6 C 22,5 C 82 % 62 % 1025,4 hPa 0,0 l/m 6,3 km/h (2 Bft) NO 45 -3,3 C -0,6 C 7,2 km/h (2 Bft)
25.10.2021 03:28 -0,6 C -0,6 C 22,5 C 82 % 62 % 1025,4 hPa 0,0 l/m 6,0 km/h (2 Bft) NO 45 -3,3 C -0,6 C 7,2 km/h (2 Bft)
25.10.2021 03:26 -0,4 C -0,6 C 22,5 C 82 % 62 % 1025,4 hPa 0,0 l/m 5,8 km/h (2 Bft) NO 45 -3,1 C -0,4 C 6,0 km/h (2 Bft)
25.10.2021 03:24 -0,4 C -0,6 C 22,5 C 82 % 62 % 1025,8 hPa 0,0 l/m 5,1 km/h (1 Bft) NO 45 -3,1 C -0,4 C 6,3 km/h (2 Bft)
25.10.2021 03:22 -0,4 C -0,6 C 22,5 C 82 % 62 % 1025,8 hPa 0,0 l/m 4,6 km/h (1 Bft) N-NO 22 -3,1 C -0,4 C 6,5 km/h (2 Bft)
25.10.2021 03:20 -0,4 C -0,6 C 22,5 C 82 % 62 % 1025,8 hPa 0,0 l/m 4,1 km/h (1 Bft) N-NO 22 -3,1 C -0,4 C 7,5 km/h (2 Bft)
25.10.2021 03:18 -0,4 C -0,9 C 22,5 C 82 % 62 % 1025,8 hPa 0,0 l/m 3,1 km/h (1 Bft) NO 45 -3,1 C -0,4 C 7,5 km/h (2 Bft)
25.10.2021 03:16 -0,5 C -1,2 C 22,5 C 82 % 62 % 1025,8 hPa 0,0 l/m 1,9 km/h (1 Bft) NO 45 -3,2 C -0,5 C 5,1 km/h (1 Bft)
25.10.2021 03:14 -0,6 C -1,2 C 22,5 C 82 % 62 % 1025,8 hPa 0,0 l/m 1,9 km/h (1 Bft) NO 45 -3,3 C -0,6 C 3,9 km/h (1 Bft)
25.10.2021 03:12 -0,6 C -1,2 C 22,5 C 82 % 62 % 1025,8 hPa 0,0 l/m 1,7 km/h (1 Bft) NO 45 -3,3 C -0,6 C 3,9 km/h (1 Bft)
25.10.2021 03:10 -0,6 C -1,2 C 22,6 C 82 % 62 % 1025,8 hPa 0,0 l/m 0,7 km/h (0 Bft) N-NO 22 -3,3 C -0,6 C 2,4 km/h (1 Bft)
25.10.2021 03:08 -0,6 C -1,2 C 22,6 C 82 % 62 % 1025,8 hPa 0,0 l/m 0,7 km/h (0 Bft) N-NO 22 -3,3 C -0,6 C 2,4 km/h (1 Bft)
25.10.2021 03:06 -0,6 C -1,2 C 22,6 C 82 % 62 % 1025,8 hPa 0,0 l/m 0,7 km/h (0 Bft) N-NO 22 -3,3 C -0,6 C 2,4 km/h (1 Bft)
25.10.2021 03:04 -0,6 C -1,2 C 22,6 C 82 % 62 % 1025,8 hPa 0,0 l/m 0,7 km/h (0 Bft) N-NO 22 -3,3 C -0,6 C 2,4 km/h (1 Bft)
25.10.2021 03:02 -0,6 C -1,2 C 22,6 C 82 % 62 % 1025,8 hPa 0,0 l/m 0,7 km/h (0 Bft) N-NO 22 -3,3 C -0,6 C 2,9 km/h (1 Bft)
25.10.2021 03:00 -0,6 C -1,2 C 22,5 C 82 % 62 % 1025,8 hPa 0,0 l/m 0,7 km/h (0 Bft) N-NO 22 -3,3 C -0,6 C 2,9 km/h (1 Bft)
25.10.2021 02:58 -0,6 C -1,0 C 22,6 C 82 % 62 % 1025,8 hPa 0,0 l/m 0,2 km/h (0 Bft) N-NO 22 -3,3 C -0,6 C 2,9 km/h (1 Bft)
25.10.2021 02:56 -0,6 C -0,9 C 22,6 C 82 % 62 % 1025,8 hPa 0,0 l/m 0,0 km/h (0 Bft) O 90 -3,3 C -0,6 C 0,0 km/h (0 Bft)
25.10.2021 02:54 -0,6 C -0,9 C 22,6 C 82 % 62 % 1025,8 hPa 0,0 l/m 0,0 km/h (0 Bft) O 90 -3,3 C -0,6 C 0,0 km/h (0 Bft)
25.10.2021 02:52 -0,4 C -0,9 C 22,6 C 82 % 62 % 1025,8 hPa 0,0 l/m 0,0 km/h (0 Bft) O 90 -3,1 C -0,4 C 0,0 km/h (0 Bft)
25.10.2021 02:50 -0,4 C -0,9 C 22,6 C 82 % 62 % 1025,8 hPa 0,0 l/m 0,2 km/h (0 Bft) O 90 -3,1 C -0,4 C 0,0 km/h (0 Bft)
25.10.2021 02:48 -0,4 C -0,9 C 22,6 C 82 % 62 % 1025,8 hPa 0,0 l/m 0,2 km/h (0 Bft) S-SO 157 -3,1 C -0,4 C 0,0 km/h (0 Bft)
25.10.2021 02:46 -0,4 C -0,9 C 22,6 C 82 % 62 % 1025,8 hPa 0,0 l/m 0,2 km/h (0 Bft) S-SO 157 -3,1 C -0,4 C 0,0 km/h (0 Bft)
25.10.2021 02:42 -0,4 C -0,9 C 22,6 C 82 % 62 % 1025,9 hPa 0,0 l/m 0,2 km/h (0 Bft) O-SO 112 -3,1 C -0,4 C 2,7 km/h (1 Bft)
25.10.2021 02:40 -0,3 C -0,8 C 22,6 C 82 % 62 % 1025,9 hPa 0,0 l/m 0,2 km/h (0 Bft) SO 135 -3,0 C -0,3 C 2,7 km/h (1 Bft)
25.10.2021 02:38 -0,3 C -0,8 C 22,6 C 82 % 62 % 1025,9 hPa 0,0 l/m 0,0 km/h (0 Bft) O-SO 112 -3,0 C -0,3 C 0,0 km/h (0 Bft)
25.10.2021 02:36 -0,4 C -0,5 C 22,7 C 82 % 62 % 1025,9 hPa 0,0 l/m 0,0 km/h (0 Bft) SO 135 -3,1 C -0,4 C 0,0 km/h (0 Bft)
25.10.2021 02:34 -0,3 C -0,5 C 22,7 C 82 % 62 % 1025,9 hPa 0,0 l/m 0,0 km/h (0 Bft) S-SO 157 -3,0 C -0,3 C 0,0 km/h (0 Bft)
25.10.2021 02:32 -0,3 C -0,5 C 22,7 C 82 % 62 % 1025,9 hPa 0,0 l/m 0,0 km/h (0 Bft) S-SO 157 -3,0 C -0,3 C 0,0 km/h (0 Bft)
25.10.2021 02:30 -0,3 C -0,6 C 22,7 C 82 % 62 % 1025,9 hPa 0,0 l/m 0,0 km/h (0 Bft) S-SO 157 -3,0 C -0,3 C 0,0 km/h (0 Bft)
25.10.2021 02:28 -0,3 C -0,6 C 22,7 C 82 % 62 % 1025,9 hPa 0,0 l/m 0,0 km/h (0 Bft) O-SO 112 -3,0 C -0,3 C 0,0 km/h (0 Bft)
25.10.2021 02:26 -0,2 C -0,4 C 22,7 C 82 % 62 % 1025,9 hPa 0,0 l/m 0,0 km/h (0 Bft) SO 135 -2,9 C -0,2 C 0,0 km/h (0 Bft)
25.10.2021 02:24 -0,2 C -0,4 C 22,7 C 82 % 62 % 1025,8 hPa 0,0 l/m 0,0 km/h (0 Bft) SO 135 -2,9 C -0,2 C 0,0 km/h (0 Bft)
25.10.2021 02:22 -0,2 C -0,4 C 22,7 C 82 % 62 % 1025,8 hPa 0,0 l/m 0,0 km/h (0 Bft) SO 135 -2,9 C -0,2 C 0,0 km/h (0 Bft)
25.10.2021 02:20 0,0 C -0,1 C 22,7 C 82 % 62 % 1025,8 hPa 0,0 l/m 0,0 km/h (0 Bft) SO 135 -2,7 C 0,0 C 0,0 km/h (0 Bft)
25.10.2021 02:18 0,0 C 0,3 C 22,7 C 82 % 62 % 1025,8 hPa 0,0 l/m 0,0 km/h (0 Bft) SO 135 -2,7 C 0,0 C 0,0 km/h (0 Bft)
25.10.2021 02:16 0,1 C 0,5 C 22,7 C 82 % 62 % 1025,8 hPa 0,0 l/m 0,7 km/h (0 Bft) SO 135 -2,6 C 0,1 C 2,4 km/h (1 Bft)
25.10.2021 02:14 0,1 C 0,5 C 22,7 C 82 % 62 % 1025,8 hPa 0,0 l/m 0,7 km/h (0 Bft) O-SO 112 -2,6 C 0,1 C 2,4 km/h (1 Bft)
25.10.2021 02:12 0,1 C 0,5 C 22,7 C 82 % 62 % 1025,8 hPa 0,0 l/m 1,0 km/h (0 Bft) O-SO 112 -2,6 C 0,1 C 0,0 km/h (0 Bft)
25.10.2021 02:10 0,1 C -0,8 C 22,8 C 82 % 62 % 1025,8 hPa 0,0 l/m 1,2 km/h (1 Bft) O-SO 112 -2,6 C 0,1 C 0,0 km/h (0 Bft)
25.10.2021 02:08 0,1 C -0,8 C 22,8 C 82 % 62 % 1025,8 hPa 0,0 l/m 1,2 km/h (1 Bft) O-SO 112 -2,6 C 0,1 C 3,4 km/h (1 Bft)
25.10.2021 02:06 0,2 C -0,8 C 22,8 C 82 % 62 % 1025,8 hPa 0,0 l/m 1,0 km/h (0 Bft) O 90 -2,5 C 0,2 C 3,4 km/h (1 Bft)
25.10.2021 02:04 0,2 C -0,8 C 22,8 C 82 % 62 % 1025,8 hPa 0,0 l/m 0,7 km/h (0 Bft) O-NO 67 -2,5 C 0,2 C 2,7 km/h (1 Bft)
25.10.2021 02:02 0,2 C -0,6 C 22,8 C 82 % 62 % 1025,8 hPa 0,0 l/m 1,2 km/h (1 Bft) O-NO 67 -2,5 C 0,2 C 2,7 km/h (1 Bft)
25.10.2021 02:00 0,2 C -0,6 C 22,8 C 82 % 62 % 1025,8 hPa 0,0 l/m 1,7 km/h (1 Bft) NO 45 -2,5 C 0,2 C 2,4 km/h (1 Bft)
25.10.2021 01:58 0,3 C -0,4 C 22,8 C 82 % 62 % 1025,8 hPa 0,0 l/m 2,4 km/h (1 Bft) O-NO 67 -2,4 C 0,3 C 2,4 km/h (1 Bft)
25.10.2021 01:56 0,3 C -0,1 C 22,8 C 82 % 62 % 1025,8 hPa 0,0 l/m 3,1 km/h (1 Bft) O-NO 67 -2,4 C 0,3 C 2,4 km/h (1 Bft)
25.10.2021 01:54 0,4 C -0,1 C 22,8 C 82 % 62 % 1025,8 hPa 0,0 l/m 3,9 km/h (1 Bft) O-NO 67 -2,3 C 0,4 C 4,1 km/h (1 Bft)
25.10.2021 01:52 0,4 C 0,0 C 22,8 C 82 % 62 % 1025,8 hPa 0,0 l/m 4,3 km/h (1 Bft) NO 45 -2,3 C 0,4 C 5,6 km/h (1 Bft)
25.10.2021 01:50 0,6 C -0,1 C 22,8 C 82 % 62 % 1025,8 hPa 0,0 l/m 4,3 km/h (1 Bft) NO 45 -2,1 C 0,6 C 5,6 km/h (1 Bft)
25.10.2021 01:48 0,6 C -0,1 C 22,9 C 82 % 62 % 1025,8 hPa 0,0 l/m 4,1 km/h (1 Bft) NO 45 -2,1 C 0,6 C 4,8 km/h (1 Bft)
25.10.2021 01:46 0,6 C -0,3 C 22,9 C 82 % 62 % 1025,8 hPa 0,0 l/m 4,1 km/h (1 Bft) NO 45 -2,1 C 0,6 C 3,6 km/h (1 Bft)
25.10.2021 01:42 0,7 C -0,1 C 22,9 C 82 % 62 % 1025,9 hPa 0,0 l/m 3,9 km/h (1 Bft) N-NO 22 -2,0 C 0,7 C 4,6 km/h (1 Bft)
25.10.2021 01:40 0,7 C 0,0 C 22,9 C 82 % 62 % 1025,9 hPa 0,0 l/m 3,9 km/h (1 Bft) N-NO 22 -2,0 C 0,7 C 4,3 km/h (1 Bft)
25.10.2021 01:38 0,7 C 0,1 C 22,9 C 82 % 62 % 1025,9 hPa 0,0 l/m 3,9 km/h (1 Bft) NO 45 -2,0 C 0,7 C 5,1 km/h (1 Bft)
25.10.2021 01:36 0,8 C 0,1 C 22,9 C 82 % 61 % 1025,9 hPa 0,0 l/m 4,1 km/h (1 Bft) N-NO 22 -1,9 C 0,8 C 5,1 km/h (1 Bft)
25.10.2021 01:34 0,8 C 0,1 C 23,0 C 82 % 61 % 1025,9 hPa 0,0 l/m 4,3 km/h (1 Bft) NO 45 -1,9 C 0,8 C 4,6 km/h (1 Bft)
25.10.2021 01:32 0,8 C 0,1 C 23,0 C 82 % 61 % 1025,9 hPa 0,0 l/m 4,3 km/h (1 Bft) NO 45 -1,9 C 0,8 C 4,8 km/h (1 Bft)
25.10.2021 01:30 0,8 C 0,3 C 23,0 C 82 % 61 % 1025,9 hPa 0,0 l/m 4,6 km/h (1 Bft) N-NO 22 -1,9 C 0,8 C 4,8 km/h (1 Bft)
25.10.2021 01:28 0,8 C 0,3 C 23,0 C 82 % 61 % 1025,9 hPa 0,0 l/m 5,1 km/h (1 Bft) N-NO 22 -1,9 C 0,8 C 4,8 km/h (1 Bft)
25.10.2021 01:26 0,8 C 0,3 C 23,0 C 82 % 61 % 1025,9 hPa 0,0 l/m 5,6 km/h (1 Bft) N-NO 22 -1,9 C 0,8 C 5,6 km/h (1 Bft)
25.10.2021 01:24 0,8 C 0,3 C 23,0 C 82 % 61 % 1026,1 hPa 0,0 l/m 6,0 km/h (2 Bft) NO 45 -1,9 C 0,8 C 5,6 km/h (1 Bft)
25.10.2021 01:22 0,8 C 0,4 C 23,0 C 82 % 61 % 1026,1 hPa 0,0 l/m 6,5 km/h (2 Bft) N-NO 22 -1,9 C 0,7 C 6,5 km/h (2 Bft)
25.10.2021 01:20 0,8 C 0,5 C 23,1 C 82 % 61 % 1026,1 hPa 0,0 l/m 7,0 km/h (2 Bft) N-NO 22 -1,9 C 0,2 C 8,0 km/h (2 Bft)
25.10.2021 01:18 0,8 C 0,6 C 23,1 C 82 % 61 % 1026,1 hPa 0,0 l/m 7,0 km/h (2 Bft) N-NO 22 -1,9 C 0,2 C 8,0 km/h (2 Bft)
25.10.2021 01:16 0,9 C 0,7 C 23,1 C 82 % 61 % 1026,1 hPa 0,0 l/m 6,8 km/h (2 Bft) N-NO 22 -1,8 C 0,5 C 7,7 km/h (2 Bft)
25.10.2021 01:14 0,9 C 0,6 C 23,1 C 82 % 61 % 1026,1 hPa 0,0 l/m 6,8 km/h (2 Bft) NO 45 -1,8 C 0,5 C 8,2 km/h (2 Bft)
25.10.2021 01:12 0,9 C 0,6 C 23,1 C 82 % 61 % 1026,1 hPa 0,0 l/m 6,3 km/h (2 Bft) NO 45 -1,8 C 0,9 C 8,0 km/h (2 Bft)
25.10.2021 01:10 0,9 C 0,5 C 23,1 C 82 % 61 % 1026,1 hPa 0,0 l/m 6,0 km/h (2 Bft) NO 45 -1,8 C 0,9 C 7,2 km/h (2 Bft)
25.10.2021 01:08 0,8 C 0,4 C 23,1 C 82 % 61 % 1026,1 hPa 0,0 l/m 6,0 km/h (2 Bft) N-NO 22 -1,9 C 0,8 C 6,8 km/h (2 Bft)
25.10.2021 01:06 0,8 C 0,3 C 23,1 C 82 % 61 % 1026,1 hPa 0,0 l/m 5,8 km/h (2 Bft) NO 45 -1,9 C 0,8 C 6,8 km/h (2 Bft)
25.10.2021 01:04 0,8 C 0,3 C 23,1 C 82 % 61 % 1026,1 hPa 0,0 l/m 5,8 km/h (2 Bft) N-NO 22 -1,9 C 0,8 C 7,5 km/h (2 Bft)
25.10.2021 01:02 0,8 C 0,4 C 23,1 C 82 % 61 % 1026,1 hPa 0,0 l/m 5,8 km/h (2 Bft) NO 45 -1,9 C 0,8 C 7,5 km/h (2 Bft)
25.10.2021 01:00 0,8 C 0,3 C 23,2 C 82 % 61 % 1026,1 hPa 0,0 l/m 5,6 km/h (1 Bft) N-NO 22 -1,9 C 0,8 C 7,5 km/h (2 Bft)
25.10.2021 00:58 0,9 C 0,4 C 23,2 C 82 % 61 % 1026,1 hPa 0,0 l/m 5,3 km/h (1 Bft) N-NO 22 -1,8 C 0,9 C 6,0 km/h (2 Bft)
25.10.2021 00:56 0,9 C 0,4 C 23,2 C 82 % 61 % 1026,1 hPa 0,0 l/m 5,3 km/h (1 Bft) NO 45 -1,8 C 0,9 C 6,5 km/h (2 Bft)
25.10.2021 00:54 0,8 C 0,4 C 23,2 C 82 % 61 % 1026,1 hPa 0,0 l/m 5,1 km/h (1 Bft) N-NO 22 -1,9 C 0,8 C 6,8 km/h (2 Bft)
25.10.2021 00:52 0,8 C 0,4 C 23,2 C 82 % 61 % 1026,1 hPa 0,0 l/m 4,6 km/h (1 Bft) NO 45 -1,9 C 0,8 C 5,8 km/h (2 Bft)
25.10.2021 00:50 0,9 C 0,3 C 23,2 C 82 % 61 % 1026,1 hPa 0,0 l/m 3,6 km/h (1 Bft) NO 45 -1,8 C 0,9 C 6,5 km/h (2 Bft)
25.10.2021 00:48 0,9 C 0,1 C 23,2 C 82 % 61 % 1026,1 hPa 0,0 l/m 2,7 km/h (1 Bft) NO 45 -1,8 C 0,9 C 6,5 km/h (2 Bft)
25.10.2021 00:46 0,7 C -0,3 C 23,3 C 82 % 61 % 1026,1 hPa 0,0 l/m 1,7 km/h (1 Bft) N-NO 22 -2,0 C 0,7 C 5,1 km/h (1 Bft)
25.10.2021 00:42 0,7 C -0,1 C 23,3 C 82 % 61 % 1026,2 hPa 0,0 l/m 0,2 km/h (0 Bft) N-NO 22 -2,0 C 0,7 C 3,1 km/h (1 Bft)
25.10.2021 00:40 0,7 C -0,1 C 23,3 C 82 % 61 % 1026,2 hPa 0,0 l/m 0,0 km/h (0 Bft) NO 45 -2,0 C 0,7 C 0,0 km/h (0 Bft)
25.10.2021 00:38 0,8 C -0,1 C 23,3 C 82 % 61 % 1026,2 hPa 0,0 l/m 0,0 km/h (0 Bft) O-NO 67 -1,9 C 0,8 C 0,0 km/h (0 Bft)
25.10.2021 00:36 0,9 C 0,0 C 23,3 C 82 % 61 % 1026,2 hPa 0,0 l/m 0,0 km/h (0 Bft) SO 135 -1,8 C 0,9 C 0,0 km/h (0 Bft)
25.10.2021 00:34 0,9 C 0,0 C 23,3 C 82 % 61 % 1026,2 hPa 0,0 l/m 0,0 km/h (0 Bft) SO 135 -1,8 C 0,9 C 0,0 km/h (0 Bft)
25.10.2021 00:32 0,9 C 0,0 C 23,3 C 82 % 61 % 1026,2 hPa 0,0 l/m 0,0 km/h (0 Bft) O-SO 112 -1,8 C 0,9 C 0,0 km/h (0 Bft)
25.10.2021 00:30 1,0 C 0,1 C 23,3 C 82 % 61 % 1026,2 hPa 0,0 l/m 0,5 km/h (0 Bft) O-SO 112 -1,7 C 1,0 C 0,0 km/h (0 Bft)
25.10.2021 00:28 1,0 C 0,1 C 23,3 C 82 % 61 % 1026,2 hPa 0,0 l/m 1,0 km/h (0 Bft) O-NO 67 -1,7 C 1,0 C 0,0 km/h (0 Bft)
25.10.2021 00:26 1,1 C 0,1 C 23,3 C 82 % 61 % 1026,2 hPa 0,0 l/m 2,2 km/h (1 Bft) O-SO 112 -1,6 C 1,1 C 0,0 km/h (0 Bft)
25.10.2021 00:24 1,1 C 0,1 C 23,3 C 82 % 61 % 1026,4 hPa 0,0 l/m 2,9 km/h (1 Bft) O-NO 67 -1,6 C 1,1 C 0,0 km/h (0 Bft)
25.10.2021 00:22 1,1 C 0,3 C 23,3 C 82 % 61 % 1026,4 hPa 0,0 l/m 3,6 km/h (1 Bft) O 90 -1,6 C 1,1 C 3,4 km/h (1 Bft)
25.10.2021 00:20 1,2 C 0,6 C 23,3 C 82 % 61 % 1026,4 hPa 0,0 l/m 3,4 km/h (1 Bft) NO 45 -1,5 C 1,2 C 3,9 km/h (1 Bft)
25.10.2021 00:18 1,2 C 0,6 C 23,3 C 82 % 61 % 1026,4 hPa 0,0 l/m 3,4 km/h (1 Bft) NO 45 -1,5 C 1,2 C 5,6 km/h (1 Bft)
25.10.2021 00:16 1,2 C 0,4 C 23,3 C 81 % 61 % 1026,4 hPa 0,0 l/m 2,9 km/h (1 Bft) NO 45 -1,7 C 1,2 C 6,0 km/h (2 Bft)
25.10.2021 00:14 1,2 C 0,4 C 23,3 C 81 % 61 % 1026,4 hPa 0,0 l/m 2,2 km/h (1 Bft) NO 45 -1,7 C 1,2 C 6,0 km/h (2 Bft)
25.10.2021 00:12 1,1 C 0,4 C 23,3 C 81 % 61 % 1026,4 hPa 0,0 l/m 2,2 km/h (1 Bft) N-NO 22 -1,8 C 1,1 C 6,3 km/h (2 Bft)
25.10.2021 00:10 1,2 C 1,1 C 23,3 C 81 % 61 % 1026,4 hPa 0,0 l/m 7,5 km/h (2 Bft) O-NO 67 -1,7 C 0,1 C 6,3 km/h (2 Bft)
25.10.2021 00:08 1,2 C 1,1 C 23,3 C 81 % 61 % 1026,4 hPa 0,0 l/m 7,5 km/h (2 Bft) O-NO 67 -1,7 C 0,1 C 6,3 km/h (2 Bft)
25.10.2021 00:06 1,2 C 1,1 C 23,3 C 81 % 61 % 1026,4 hPa 0,0 l/m 7,5 km/h (2 Bft) O-NO 67 -1,7 C 0,1 C 6,3 km/h (2 Bft)
25.10.2021 00:04 1,2 C 1,1 C 23,3 C 81 % 61 % 1026,6 hPa 0,0 l/m 7,5 km/h (2 Bft) O-NO 67 -1,7 C 0,1 C 6,3 km/h (2 Bft)
25.10.2021 00:02 1,2 C 1,1 C 23,3 C 81 % 61 % 1026,6 hPa 0,0 l/m 7,5 km/h (2 Bft) O-NO 67 -1,7 C 0,1 C 8,4 km/h (2 Bft)
25.10.2021 00:00 1,4 C 1,2 C 23,3 C 81 % 61 % 1026,6 hPa 0,0 l/m 7,5 km/h (2 Bft) NO 45 -1,5 C 0,3 C 8,7 km/h (2 Bft)
_ Min-Zeit 06:48 06:56 07:56 00:00 00:00 07:26 - 00:32 - - 06:48 06:48 00:24
Minimum _ -1,8 C -1,6 C 22,3 C 81 % 61 % 1024,2 hPa - 0,0 km/h (0 Bft) - - -4,3 C -1,8 C 0,0 km/h (0 Bft)
_ Max-Zeit 00:00 09:12 00:00 08:56 03:48 00:00 00:00 00:00 - - 00:00 00:14 00:00
Maximum _ 1,4 C 2,8 C 23,3 C 85 % 63 % 1026,6 hPa 0,0 l/m 7,5 km/h
NO (2 Bft)
- - -1,5 C 1,2 C 8,7 km/h
NO (2 Bft)
Durchschnitt _ -0,5 C -0,1 C 22,6 C 83 % 62 % 1025,2 hPa #0,0 l/m 1,7 km/h (1 Bft) NO - -3,1 C -0,5 C 2,3 km/h (1 Bft)